Content
SEND FEEDBACK

Daily
Averages
Monthly
Summary
French Polynesia

PAPEETE, FRENCH POLYNESIA


Home > Oceania > French Polynesia
Elevation: 7 feet     Latitude: 17 33S     Longitude: 149 36W

WEATHER
 
SELECT A DAY
Number of Records: 215,884;   Date Range: 6/30/96 - 11/21/14
 
SHARE

PRINT THIS DATA

[ ← Previous Day ]
WEATHER ALMANAC - DECEMBER 22, 2013
[ Next Day → ]
[ °C ]   °F
Weather ElementAverageHighLow
Temperature80.9 °F86 °F (9:30 am)73.4 °F (5:00 am)
Dewpoint69.5 °F73.4 °F (1:35 pm)66 °F (8:00 pm)
Humidity67.5 %89 % (10:30 pm)51 % (8:00 pm)
Barometer29.85 in29.90 in (11:00 pm)29.80 in (3:30 am)
Wind Speed8.8 mph17.3 mph (1:00 pm)
Wind Gust31.1 mph (9:00 pm)
Weather ElementAverage
Visibility7.8 mi
Wind DirectionENE (79.1 °)

Weather ElementTotal
Precipitation---
Cooling Degree Days14.7 (Base 65)
Growing Degree Days29.7 (Base 50)
Averaged from 54 records on December 22, 2013
WEATHER CONDITIONS BREAKOUT
WIND DIRECTION BREAKOUT
WEATHER BY HOUR - DECEMBER 22, 2013
[ °C ]   °F
Local TimeTemperatureDewpointHumidityBarometerVisibilityWind DirectionWind SpeedGust SpeedPrecipitationEventsConditions
12:30 AM77.0 °F66.2 °F69 %29.86 in6.2 miENE (60°)8.1 mphMostly Cloudy
1:00 AM77.0 °F69.8 °F78 %29.86 in6.2 miNorth (350°)16.1 mphMostly Cloudy
1:30 AM75.2 °F69.8 °F83 %29.83 in6.2 miNNW (330°)8.1 mphPartly Cloudy
2:00 AM76.0 °F69.0 °F73 %29.83 in12.0 miNNE (30°)5.8 mphPartly Cloudy
2:00 AM77.0 °F69.8 °F78 %29.83 in6.2 miNNE (30°)5.8 mphPartly Cloudy
2:30 AM75.2 °F68.0 °F78 %29.83 in6.2 miEast (90°)4.6 mphScattered Clouds
3:00 AM77.0 °F69.8 °F78 %29.83 in6.2 miNNE (20°)11.5 mphMostly Cloudy
3:30 AM75.2 °F68.0 °F78 %29.80 in6.2 miEast (80°)5.8 mphPartly Cloudy
4:00 AM75.2 °F68.0 °F78 %29.83 in6.2 miEast (80°)3.5 mph
4:30 AM75.2 °F68.0 °F78 %29.83 in6.2 miCalm
5:00 AM74.0 °F67.0 °F73 %29.84 in37.0 miEast (90°)2.3 mphClear
5:00 AM73.4 °F68.0 °F83 %29.83 in6.2 miEast (90°)2.3 mph
5:30 AM73.4 °F66.2 °F78 %29.83 in6.2 miVariable3.5 mph
6:00 AM73.4 °F66.2 °F78 %29.86 in6.2 miVariable3.5 mphPartly Cloudy
6:30 AM77.0 °F68.0 °F74 %29.86 in6.2 miCalmPartly Cloudy
7:00 AM80.6 °F68.0 °F65 %29.89 in6.2 miCalmPartly Cloudy
7:30 AM82.4 °F68.0 °F62 %29.89 in6.2 miSW (230°)5.8 mphPartly Cloudy
8:00 AM83.0 °F68.0 °F52 %29.89 in16.0 miSW (220°)4.6 mphPartly Cloudy
8:00 AM82.4 °F68.0 °F62 %29.89 in6.2 miSW (220°)4.6 mphPartly Cloudy
8:30 AM82.4 °F69.8 °F66 %29.89 in6.2 miWest (270°)3.5 mphPartly Cloudy
9:00 AM84.2 °F68.0 °F58 %29.89 in6.2 miVariable3.5 mphPartly Cloudy
9:30 AM86.0 °F69.8 °F58 %29.86 in6.2 miNorth (360°)5.8 mphPartly Cloudy
10:00 AM86.0 °F69.8 °F58 %29.86 in6.2 miNNE (30°)12.7 mphPartly Cloudy
10:30 AM86.0 °F71.6 °F62 %29.86 in6.2 miNE (40°)12.7 mphPartly Cloudy
11:00 AM86.0 °F71.0 °F52 %29.87 in16.0 miNE (40°)15.0 mphScattered Clouds
11:00 AM86.0 °F71.6 °F62 %29.86 in6.2 miNE (40°)15.0 mphPartly Cloudy
11:30 AM86.0 °F71.6 °F62 %29.86 in6.2 miNE (50°)13.8 mphPartly Cloudy
12:00 PM86.0 °F69.8 °F58 %29.86 in6.2 miNE (50°)15.0 mphPartly Cloudy
12:30 PM86.0 °F71.6 °F62 %29.86 in6.2 miNE (40°)15.0 mphPartly Cloudy
1:00 PM86.0 °F71.6 °F62 %29.83 in6.2 miNE (50°)17.3 mphScattered Clouds
1:35 PM86.0 °F73.4 °F66 %29.83 in6.2 miNE (50°)15.0 mphPartly Cloudy
2:00 PM86.0 °F72.0 °F55 %29.83 in16.0 miNE (50°)12.7 mphScattered Clouds
2:00 PM86.0 °F71.6 °F62 %29.83 in6.2 miNE (50°)12.7 mphPartly Cloudy
2:30 PM86.0 °F69.8 °F58 %29.80 in6.2 miNE (50°)15.0 mphPartly Cloudy
3:00 PM86.0 °F69.8 °F58 %29.80 in6.2 miNE (50°)15.0 mphPartly Cloudy
3:30 PM86.0 °F69.8 °F58 %29.80 in6.2 miENE (60°)12.7 mphPartly Cloudy
4:00 PM86.0 °F69.8 °F58 %29.80 in6.2 miNE (50°)13.8 mphPartly Cloudy
4:30 PM84.2 °F71.6 °F66 %29.80 in6.2 miNE (50°)16.1 mphPartly Cloudy
5:00 PM84.0 °F71.0 °F57 %29.82 in16.0 miNE (50°)12.7 mphScattered Clouds
5:00 PM84.2 °F71.6 °F66 %29.80 in6.2 miNE (50°)12.7 mphPartly Cloudy
5:30 PM84.2 °F69.8 °F62 %29.83 in6.2 miEast (80°)13.8 mphPartly Cloudy
6:00 PM82.4 °F69.8 °F66 %29.83 in6.2 miENE (60°)16.1 mphPartly Cloudy
6:30 PM82.4 °F69.8 °F66 %29.83 in6.2 miENE (60°)17.3 mphPartly Cloudy
7:00 PM82.4 °F68.0 °F62 %29.86 in6.2 miENE (60°)12.7 mphPartly Cloudy
7:30 PM80.6 °F68.0 °F65 %29.86 in6.2 miENE (70°)10.4 mphPartly Cloudy
8:00 PM81.0 °F66.0 °F51 %29.88 in12.0 miEast (100°)3.5 mphScattered Clouds
8:00 PM80.6 °F66.2 °F61 %29.86 in6.2 miEast (100°)3.5 mphPartly Cloudy
8:30 PM80.6 °F68.0 °F65 %29.86 in6.2 miENE (70°)6.9 mphPartly Cloudy
9:00 PM77.0 °F69.8 °F78 %29.89 in3.1 miEast (80°)11.5 mph31.1 mphRainLight Rain Showers
10:00 PM77.0 °F71.6 °F83 %29.89 in6.2 miVariable3.5 mphPartly Cloudy
10:30 PM75.2 °F71.6 °F89 %29.89 in6.2 miVariable3.5 mphPartly Cloudy
11:00 PM77.0 °F71.0 °F76 %29.90 in12.0 miENE (60°)3.5 mphPartly Cloudy
11:00 PM77.0 °F71.6 °F83 %29.89 in6.2 miENE (60°)3.5 mphPartly Cloudy
11:30 PM77.0 °F69.8 °F78 %29.89 in6.2 miENE (70°)3.5 mphScattered Clouds
Hourly data recorded from NTAA, located miles away from Papeete, French Polynesia







STORIES FROM OUR PARTNERS